Weather History for LIRA - April, 2013

Change the Weather History Date:

Sunday, April 21, 2013

  Actual Average Record
Temperature  
Mean Temperature 54 °F -  
Max Temperature 60 °F 71 °F 77 °F (2007)
Min Temperature 48 °F 50 °F 44 °F (1998)
Degree Days  
Heating Degree Days 11    
Growing Degree Days 4 (Base 50)    
Moisture  
Dew Point 43 °F    
Average Humidity 67    
Maximum Humidity 93    
Minimum Humidity 39    
Precipitation  
Precipitation 0.00 in 0.07 in - ()
Sea Level Pressure  
Sea Level Pressure 29.98 in    
Wind  
Wind Speed 6 mph ()    
Max Wind Speed 13 mph    
Max Gust Speed -    
Visibility 6.2 miles    
Events Rain , Thunderstorm    
Averages and records for this station are not official NWS values.
T = Trace of Precipitation, MM = Missing Value Source: Averaged Metar Reports

Daily Weather History Graph

Daily Weather History Graph

Search for Another Location

Airport or City:

Trip Planner

Search our weather history database for the weather conditions in past years. The results will help you decide how hot, cold, wet, or windy it might be!

Date:

Astronomy

Apr. 21, 2013 Rise Set
Actual Time 6:20 AM CEST 7:57 PM CEST
Civil Twilight 5:50 AM CEST 8:26 PM CEST
Nautical Twilight 5:15 AM CEST 9:02 PM CEST
Astronomical Twilight 4:37 AM CEST 9:40 PM CEST
Moon 3:20 PM CEST (4/21) 3:37 AM CEST (4/21)
Length of Visible Light 14h 35m
Length of Day
13h 36m
Waxing Gibbous, 77% of the Moon is Illuminated
Apr 21
Waxing Gibbous
Apr 25
Full
May 2
Last Quarter
May 10
New
May 18
First Quarter

Hourly Weather History & Observations

Time (CEST) Temp. Dew Point Humidity Pressure Visibility Wind Dir Wind Speed Gust Speed Precip Events Conditions
12:15 AM 51.8 °F 44.6 °F 76% 30.01 in 6.2 mi South 4.6 mph - N/A   Partly Cloudy
12:45 AM 48.2 °F 42.8 °F 82% 30.01 in 6.2 mi SE 5.8 mph - N/A   Partly Cloudy
1:15 AM 48.2 °F 44.6 °F 87% 30.01 in 6.2 mi SE 5.8 mph - N/A   Partly Cloudy
1:45 AM 48.2 °F 44.6 °F 87% 30.01 in - SSE 6.9 mph - N/A   Clear
2:15 AM 50.0 °F 46.4 °F 87% 30.01 in - SSE 8.1 mph - N/A   Clear
2:45 AM 51.8 °F 46.4 °F 82% 30.01 in 6.2 mi SSE 6.9 mph - N/A   Partly Cloudy
3:15 AM 48.2 °F 46.4 °F 93% 30.01 in 6.2 mi SE 8.1 mph - N/A   Partly Cloudy
3:45 AM 48.2 °F 46.4 °F 93% 29.98 in 6.2 mi SE 8.1 mph - N/A   Partly Cloudy
4:15 AM 50.0 °F 46.4 °F 87% 29.98 in 6.2 mi SSE 9.2 mph - N/A   Partly Cloudy
4:45 AM 50.0 °F 44.6 °F 82% 29.98 in 6.2 mi SSE 9.2 mph - N/A   Partly Cloudy
5:15 AM 51.8 °F 46.4 °F 82% 29.98 in - SSE 12.7 mph - N/A   Clear
5:45 AM 51.8 °F 46.4 °F 82% 29.98 in - SSE 12.7 mph - N/A   Clear
6:15 AM 51.8 °F 46.4 °F 82% 29.98 in 6.2 mi SSE 10.4 mph - N/A   Scattered Clouds
6:45 AM 51.8 °F 46.4 °F 82% 29.98 in 6.2 mi South 8.1 mph - N/A   Scattered Clouds
7:15 AM 51.8 °F 48.2 °F 88% 30.01 in 6.2 mi South 8.1 mph - N/A   Mostly Cloudy
7:45 AM 51.8 °F 48.2 °F 88% 30.01 in 6.2 mi South 6.9 mph - N/A   Scattered Clouds
8:15 AM 53.6 °F 50.0 °F 88% 30.01 in 6.2 mi SSW 3.5 mph - N/A   Scattered Clouds
8:45 AM 55.4 °F 50.0 °F 82% 30.01 in 6.2 mi SSW 3.5 mph - N/A   Scattered Clouds
9:15 AM 55.4 °F 46.4 °F 72% 30.01 in 6.2 mi West 2.3 mph - N/A   Scattered Clouds
9:45 AM 57.2 °F 46.4 °F 67% 30.01 in 6.2 mi SSE 3.5 mph - N/A   Scattered Clouds
10:15 AM 59.0 °F 44.6 °F 59% 30.01 in 6.2 mi South 5.8 mph - N/A   Scattered Clouds
10:45 AM 59.0 °F 46.4 °F 63% 30.01 in 6.2 mi West 5.8 mph - N/A   Scattered Clouds
11:15 AM 59.0 °F 42.8 °F 55% 30.01 in 6.2 mi SW 5.8 mph - N/A   Scattered Clouds
11:45 AM 60.8 °F 39.2 °F 45% 30.01 in 6.2 mi SSW 8.1 mph - N/A   Scattered Clouds
12:15 PM 60.8 °F 39.2 °F 45% 30.01 in 6.2 mi SW 8.1 mph - N/A   Scattered Clouds
12:45 PM 60.8 °F 37.4 °F 42% 30.01 in 6.2 mi SSW 9.2 mph - N/A   Scattered Clouds
1:15 PM 60.8 °F 37.4 °F 42% 30.01 in 6.2 mi WSW 8.1 mph - N/A   Scattered Clouds
1:45 PM 60.8 °F 35.6 °F 39% 30.01 in 6.2 mi SW 9.2 mph - N/A   Scattered Clouds
2:15 PM 60.8 °F 39.2 °F 45% 30.01 in 6.2 mi SW 8.1 mph - N/A   Scattered Clouds
2:45 PM 60.8 °F 39.2 °F 45% 29.98 in 6.2 mi SW 10.4 mph - N/A   Scattered Clouds
3:15 PM 60.8 °F 35.6 °F 39% 29.98 in 6.2 mi WSW 11.5 mph - N/A   Scattered Clouds
3:45 PM 60.8 °F 37.4 °F 42% 29.98 in 6.2 mi SW 9.2 mph - N/A   Scattered Clouds
4:15 PM 60.8 °F 35.6 °F 39% 29.95 in 6.2 mi SW 10.4 mph - N/A   Scattered Clouds
4:45 PM 59.0 °F 35.6 °F 42% 29.95 in 6.2 mi SW 10.4 mph - N/A   Partly Cloudy
5:15 PM 59.0 °F 37.4 °F 45% 29.95 in 6.2 mi WSW 10.4 mph - N/A   Partly Cloudy
5:45 PM 59.0 °F 37.4 °F 45% 29.95 in 6.2 mi SW 8.1 mph - N/A   Partly Cloudy
6:15 PM 59.0 °F 37.4 °F 45% 29.95 in 6.2 mi SW 6.9 mph - N/A   Scattered Clouds
6:45 PM 59.0 °F 37.4 °F 45% 29.95 in 6.2 mi SW 5.8 mph - N/A   Scattered Clouds
7:15 PM 59.0 °F 41.0 °F 51% 29.92 in 6.2 mi SW 8.1 mph - N/A   Scattered Clouds
7:45 PM 53.6 °F 42.8 °F 67% 29.95 in 6.2 mi WSW 4.6 mph - N/A   Scattered Clouds
8:15 PM 55.4 °F 44.6 °F 67% 29.95 in 6.2 mi SW 2.3 mph - N/A   Scattered Clouds
8:45 PM 55.4 °F 46.4 °F 72% 29.95 in 6.2 mi SSW 3.5 mph - N/A Thunderstorm Scattered Clouds
9:15 PM 53.6 °F 46.4 °F 77% 29.95 in 6.2 mi SW 2.3 mph - N/A Thunderstorm Scattered Clouds
9:45 PM 51.8 °F 44.6 °F 76% 29.95 in 6.2 mi Calm Calm - N/A Thunderstorm Scattered Clouds
10:15 PM 53.6 °F 46.4 °F 77% 29.95 in 6.2 mi ESE 1.2 mph - N/A Thunderstorm Scattered Clouds
10:45 PM 53.6 °F 46.4 °F 77% 29.95 in 6.2 mi North 1.2 mph - N/A Thunderstorm Scattered Clouds
11:15 PM 53.6 °F 46.4 °F 77% 29.95 in 6.2 mi Calm Calm - N/A Thunderstorm Scattered Clouds
11:45 PM 51.8 °F 46.4 °F 82% 29.95 in 6.2 mi SSW 6.9 mph - N/A Rain , Thunderstorm Light Thunderstorms and Rain